User: anonymous   Login
Location: Utrecht
(52.0907°N, 5.1214°E)
Time: 09:54:13
(UTC+01:00)
Language:

deb HAPS - Orbit

View from above orbital plane
View from above orbital plane
View from above satellite
View from above satellite

Ground track
Ground track

The orbit data is extracted from the following two-line orbital elements,

1 24151U 94029HA  22330.80827143  .00000580  00000-0  10175-3 0  9990
2 24151  82.0222   1.3628 0164552 164.8749 195.7460 14.57559889403362
Epoch (UTC): 26 November 2022 19:23:54
Eccentricity: 0.0164552
inclination: 82.0222°
perigee height: 584 km
apogee height: 817 km
right ascension of ascending node: 1.3628°
argument of perigee: 164.8749°
revolutions per day: 14.57559889
mean anomaly at epoch: 195.7460°
orbit number at epoch: 40336

The dashed part of the orbit path shows where the satellite is in the earth's shadow,  

DLR